[[{"header":{"parameterUnit":"m.s-1","parameterCategory":1,"la1":30.2991,"la2":30.254,"lo1":-89.0895,"lo2":-89.0444,"dy":0.0017,"dx":0.0017,"nx":28,"ny":28,"refTime":"2023-10-08T21:00:00:Z","depth":0,"parameterNumber":2,"parameterNumberName":"U-component_of_WINDS"},"data":[0,0,0,0,0,0,0,0,0,0,0,0,0,0,0,0,0,0,0,0,0,0,0,0,0,0,0,0,0,0,0,0,0,0,0,0,0,0,0,0,0,0,0,0,0,0,0,0,0,0,0,0,0,0,0,0,0,0,3.0451,3.0451,0,3.043,3.043,3.043,3.0337,3.0334,3.0332,3.033,3.0308,3.0309,3.0311,0,0,0,0,0,0,0,0,0,0,0,0,0,3.0406,3.0408,3.0451,3.0451,3.045,3.043,3.043,3.0429,3.0337,3.0334,3.0332,3.0329,3.0307,3.0309,3.0311,0,0,0,0,0,0,0,0,0,0,0,0,0,3.041,3.0408,3.0451,3.0402,3.0397,3.043,3.043,3.0429,3.0338,3.0334,3.0331,3.0328,3.0307,3.0309,3.0311,3.0389,0,0,3.0318,3.0318,0,0,0,0,0,0,0,0,3.041,3.0411,3.0409,3.0405,3.04,3.0383,3.0406,3.0416,3.0338,3.036,3.033,3.0326,3.0335,3.0335,3.0338,3.0388,3.0387,3.0318,3.0319,3.032,3.0321,0,0,0,0,0,0,0,3.041,3.0412,3.0443,3.0409,3.0404,3.0379,3.0376,3.0407,3.0366,3.0358,3.0351,3.035,3.0332,3.0336,3.0337,3.0387,3.0318,3.032,3.0321,3.0322,3.0494,3.0497,0,0,0,0,0,0,3.0417,3.0412,3.0443,3.0442,3.0397,3.0383,3.0379,3.0391,3.0366,3.0359,3.0353,3.0346,3.0334,3.0334,3.0336,3.042,3.032,3.0322,3.0323,3.049,3.0494,3.0498,0,0,0,0,0,0,3.0416,3.042,3.0444,3.0425,3.0426,3.0387,3.0401,3.0393,3.0397,3.0362,3.0354,3.0365,3.0332,3.0333,3.0375,3.0419,3.0323,3.0325,3.0486,3.0492,3.0496,3.0594,0,0,0,0,0,0,3.0415,3.0421,3.0451,3.0427,3.0428,3.0486,3.0404,3.0395,3.0401,3.0391,3.0371,3.0364,3.0329,3.0373,3.0377,3.042,3.0327,3.0482,3.0489,3.0495,3.0587,3.0602,3.0615,0,0,0,0,0,3.0414,3.0481,3.0453,3.0458,3.0465,3.0488,3.0489,3.0447,3.0405,3.0434,3.041,3.0365,3.0414,3.0378,3.0382,3.0426,3.0479,3.0487,3.0494,3.0581,3.0599,3.0615,0,0,0,0,0,0,3.0513,3.0477,3.0446,3.0507,3.0501,3.0473,3.0508,3.0469,3.0475,3.0466,3.0414,3.041,3.0459,3.0447,3.0408,3.0497,3.0438,3.0447,3.0503,3.052,3.0534,3.0534,3.0328,0,0,0,0,0,3.0542,3.0564,3.0532,3.0589,3.0587,3.0549,3.0557,3.0525,3.0517,3.0514,3.0494,3.0487,3.05,3.051,3.0521,3.0586,3.0577,3.0618,3.0632,3.0644,3.065,3.0678,3.0694,3.0522,3.0522,3.0522,0,0,3.0602,3.0585,3.0603,3.0608,3.06,3.0622,3.0547,3.0575,3.059,3.0518,3.0555,3.0541,3.0529,3.0582,3.0604,3.0574,3.0696,3.0653,3.0662,3.0663,3.0687,3.0704,3.0718,3.0527,3.0526,3.0525,0,0,3.0721,3.0713,3.0756,3.0749,3.0737,3.071,3.0721,3.0697,3.0684,3.0721,3.0665,3.0682,3.0708,3.07,3.0699,3.0812,3.0768,3.0817,3.0888,3.0916,3.0929,3.0941,3.0976,3.099,3.0825,3.0825,3.0825,0,3.0797,3.0829,3.0784,3.0814,3.0816,3.0751,3.0793,3.0788,3.078,3.0782,3.0748,3.0775,3.0763,3.081,3.0837,3.0841,3.0848,3.0817,3.0931,3.0943,3.0953,3.0985,3.0999,3.083,3.083,3.0829,3.0829,0,3.092,3.0943,3.0979,3.0971,3.0978,3.1014,3.0972,3.0984,3.0951,3.0927,3.0963,3.0946,3.095,3.0959,3.0929,3.1001,3.0981,3.0941,3.088,3.0975,3.1005,3.1018,3.0839,3.0837,3.0835,3.0833,0,0,3.1101,3.1065,3.1079,3.1072,3.1052,3.1068,3.11,3.1102,3.1111,3.1108,3.113,3.1151,3.1111,3.1111,3.1078,3.1103,3.1186,3.1058,3.1057,3.1078,3.1258,3.1286,3.1302,3.1159,3.1161,3.1163,3.1258,0,3.1211,3.1262,3.1221,3.1279,3.1296,3.1234,3.126,3.125,3.1228,3.1238,3.1214,3.1227,3.1177,3.1175,3.1198,3.1172,3.1221,3.1165,3.1175,3.1176,3.1176,3.1318,3.1348,3.1438,3.1269,3.1272,3.1273,0,3.1346,3.1345,3.1405,3.1376,3.1382,3.1407,3.1403,3.1415,3.14,3.1382,3.138,3.1339,3.1365,3.1308,3.1341,3.1303,3.1305,3.1293,3.1295,3.1291,3.1228,3.1313,3.1467,3.1479,3.1292,3.129,3.1289,0,3.1465,3.148,3.1516,3.1513,3.1482,3.15,3.1487,3.147,3.1472,3.1469,3.1469,3.1471,3.147,3.147,3.143,3.1393,3.1466,3.1407,3.1448,3.1449,3.1463,3.1462,3.1615,3.1473,3.1472,3.1472,3.1472,0,3.1589,3.1627,3.1568,3.159,3.1629,3.158,3.162,3.1601,3.1585,3.16,3.1547,3.1562,3.151,3.1519,3.1488,3.1516,3.1518,3.1501,3.1491,3.1503,3.1505,3.1501,3.1492,3.1476,3.1475,3.1474,3.1474,0,3.1728,3.1691,3.1725,3.1692,3.1684,3.1714,3.1684,3.1701,3.1675,3.1695,3.1696,3.1655,3.1662,3.1622,3.1623,3.1602,3.1644,3.1626,3.1648,3.1641,3.1683,3.1678,3.1835,3.1851,3.1703,3.1705,3.1706,0,3.1808,3.1835,3.1803,3.1809,3.1799,3.181,3.1811,3.1764,3.1767,3.175,3.1769,3.1771,3.1771,3.1785,3.1753,3.1752,3.1731,3.1786,3.1731,3.174,3.1726,3.1723,3.1723,3.1797,3.1799,3.18,3.1801,0,3.1951,3.193,3.1935,3.1931,3.1934,3.1929,3.1921,3.1929,3.1877,3.1883,3.1889,3.1888,3.1887,3.1889,3.1881,3.1867,3.1824,3.182,3.1828,3.1838,3.1848,3.1838,3.1675,3.1815,3.1814,3.1813,3.1812,3.1812,3.2059,3.2078,3.2057,3.2062,3.205,3.2043,3.2056,3.203,3.2034,3.2029,3.2001,3.2011,3.1991,3.1976,3.1965,3.1971,3.1944,3.1958,3.1961,3.1964,3.1969,3.1851,3.197,3.1969,3.1969,3.1969,3.1968,0,3.2195,3.2178,3.2183,3.2172,3.2175,3.2135,3.2123,3.2127,3.2136,3.2122,3.2121,3.2126,3.2126,3.2094,3.209,3.21,3.208,3.2101,3.2097,3.2093,3.1996,3.1986,3.2116,3.2116,3.2116,3.2116,3.2116,3.2116,3.2266,3.2294,3.227,3.229,3.2272,3.2281,3.2276,3.2268,3.2255,3.2262,3.2262,3.2241,3.2218,3.2211,3.2209,3.2199,3.2198,3.2224,3.2207,3.2115,3.2101,3.2087,3.2078,3.2225,3.2225,3.2303,3.2304,3.2305]},{"header":{"parameterUnit":"m.s-1","parameterCategory":1,"la1":30.2991,"la2":30.254,"lo1":-89.0895,"lo2":-89.0444,"dy":0.0017,"dx":0.0017,"nx":28,"ny":28,"refTime":"2023-10-08T21:00:00:Z","depth":0,"parameterNumber":3,"parameterNumberName":"V-component_of_WINDS"},"data":[0,0,0,0,0,0,0,0,0,0,0,0,0,0,0,0,0,0,0,0,0,0,0,0,0,0,0,0,0,0,0,0,0,0,0,0,0,0,0,0,0,0,0,0,0,0,0,0,0,0,0,0,0,0,0,0,0,0,3.2468,3.2468,0,3.2494,3.2494,3.2495,3.2464,3.2462,3.2461,3.246,3.2485,3.2486,3.2488,0,0,0,0,0,0,0,0,0,0,0,0,0,3.2388,3.239,3.2468,3.2468,3.2469,3.2494,3.2494,3.2495,3.2464,3.2462,3.2461,3.246,3.2484,3.2486,3.2488,0,0,0,0,0,0,0,0,0,0,0,0,0,3.2419,3.239,3.2468,3.2456,3.2456,3.2494,3.2494,3.2495,3.2464,3.2462,3.2461,3.2459,3.2483,3.2486,3.2489,3.2539,0,0,3.2496,3.2498,0,0,0,0,0,0,0,0,3.2417,3.2422,3.2458,3.2457,3.2456,3.2474,3.2475,3.251,3.2464,3.2461,3.246,3.2458,3.2482,3.2485,3.2494,3.254,3.2541,3.2497,3.2498,3.2499,3.25,0,0,0,0,0,0,0,3.2415,3.2421,3.2478,3.2458,3.2457,3.2449,3.2451,3.2481,3.2481,3.2461,3.2459,3.2462,3.2482,3.2491,3.2494,3.2542,3.2497,3.2499,3.25,3.2501,3.2627,3.2629,0,0,0,0,0,0,3.2415,3.2419,3.2477,3.2479,3.2432,3.2451,3.2454,3.247,3.248,3.248,3.2464,3.2461,3.2488,3.2491,3.2495,3.2552,3.2499,3.2502,3.2503,3.2626,3.2628,3.263,0,0,0,0,0,0,3.2413,3.242,3.2476,3.2449,3.2455,3.2455,3.2472,3.2471,3.2481,3.2483,3.2482,3.2474,3.2486,3.2491,3.2528,3.2552,3.2503,3.2505,3.2623,3.2626,3.2629,3.2668,0,0,0,0,0,0,3.2411,3.242,3.244,3.2449,3.2457,3.251,3.2474,3.2473,3.2486,3.2482,3.2492,3.2492,3.2485,3.2524,3.253,3.2555,3.2507,3.2621,3.2625,3.2628,3.2664,3.2671,3.2678,0,0,0,0,0,3.2408,3.245,3.2441,3.2449,3.2482,3.2512,3.2516,3.2508,3.2488,3.2507,3.2508,3.2491,3.2549,3.2528,3.2535,3.256,3.262,3.2624,3.2628,3.2661,3.267,3.2678,0,0,0,0,0,0,3.2444,3.2451,3.2442,3.2488,3.2499,3.2506,3.253,3.2518,3.2535,3.2531,3.252,3.2522,3.2561,3.2565,3.2541,3.2608,3.2581,3.2586,3.2604,3.2612,3.2619,3.2616,3.2509,0,0,0,0,0,3.2457,3.2482,3.2487,3.2527,3.2533,3.2531,3.2544,3.2537,3.2548,3.2552,3.2556,3.2567,3.2587,3.26,3.2619,3.2665,3.2665,3.2686,3.2693,3.2699,3.2703,3.2724,3.2733,3.2643,3.2643,3.2643,0,0,3.2485,3.2492,3.2508,3.2534,3.2542,3.2566,3.2535,3.2563,3.2579,3.2556,3.259,3.2593,3.2604,3.2645,3.2663,3.265,3.2728,3.2704,3.2708,3.2709,3.2729,3.2738,3.2745,3.2646,3.2645,3.2645,0,0,3.2547,3.2556,3.2589,3.2597,3.261,3.2608,3.2616,3.2624,3.2625,3.266,3.2642,3.2662,3.2697,3.2705,3.2714,3.2777,3.2761,3.2783,3.2817,3.2839,3.2846,3.2852,3.2871,3.2879,3.2788,3.2788,3.2788,0,3.2579,3.2615,3.2608,3.2635,3.2646,3.2626,3.2658,3.2667,3.2685,3.2692,3.2677,3.2719,3.2726,3.2767,3.2782,3.2791,3.2797,3.2781,3.2846,3.2852,3.2857,3.2876,3.2883,3.279,3.279,3.279,3.279,0,3.2653,3.2678,3.2703,3.272,3.2734,3.2764,3.2759,3.2774,3.2766,3.2765,3.2799,3.2806,3.2824,3.2834,3.2826,3.2873,3.2864,3.2847,3.2819,3.2868,3.2885,3.2893,3.2794,3.2793,3.2792,3.2792,0,0,3.2737,3.2749,3.2758,3.2764,3.2776,3.2794,3.2823,3.2841,3.2852,3.2866,3.2887,3.2917,3.2901,3.2911,3.2904,3.2924,3.2969,3.2904,3.2904,3.2914,3.3018,3.3028,3.3036,3.296,3.2961,3.2962,3.3016,0,3.2797,3.2845,3.2838,3.2885,3.2906,3.2887,3.2911,3.292,3.292,3.2937,3.2937,3.2957,3.2937,3.2942,3.296,3.296,3.2989,3.2956,3.2978,3.2978,3.2973,3.3046,3.3057,3.3107,3.3023,3.3024,3.3025,0,3.2873,3.2887,3.2936,3.2941,3.295,3.2972,3.2987,3.3004,3.3013,3.3012,3.3022,3.3011,3.3037,3.301,3.3045,3.3022,3.3031,3.3032,3.3034,3.3033,3.3003,3.3045,3.3123,3.313,3.3036,3.3035,3.3034,0,3.2925,3.2958,3.299,3.2996,3.3005,3.302,3.3024,3.3032,3.3042,3.3055,3.3061,3.3078,3.3086,3.3098,3.3091,3.3073,3.3126,3.3099,3.3123,3.3123,3.3133,3.3132,3.3212,3.3144,3.3144,3.3143,3.3143,0,3.2991,3.302,3.3013,3.3033,3.3064,3.3056,3.3087,3.3089,3.3096,3.3114,3.31,3.3117,3.3108,3.3124,3.3119,3.3147,3.3152,3.315,3.3147,3.3149,3.3149,3.3153,3.3148,3.3145,3.3145,3.3145,3.3144,0,3.3054,3.3051,3.3084,3.3089,3.3091,3.3114,3.3118,3.3135,3.3134,3.3157,3.3162,3.3159,3.3178,3.3173,3.3193,3.3189,3.3224,3.3218,3.322,3.3218,3.3241,3.3238,3.3324,3.3333,3.3262,3.3262,3.3263,0,3.3095,3.3117,3.3124,3.3135,3.314,3.3159,3.3169,3.3161,3.3173,3.3183,3.3199,3.3216,3.3229,3.3259,3.3259,3.3273,3.3267,3.3296,3.3269,3.3269,3.3263,3.3261,3.3262,3.33,3.3301,3.3302,3.3302,0,3.3166,3.3163,3.3179,3.3194,3.3206,3.3218,3.3228,3.3238,3.323,3.3243,3.3262,3.3272,3.3292,3.3308,3.3321,3.3324,3.3311,3.3311,3.3317,3.3318,3.3317,3.3314,3.3232,3.3308,3.3308,3.3307,3.3307,3.3307,3.3217,3.3235,3.3242,3.3259,3.3266,3.3275,3.3291,3.3291,3.3306,3.3321,3.3316,3.3336,3.3343,3.3359,3.3364,3.3379,3.3368,3.3377,3.3379,3.3381,3.3382,3.3316,3.3382,3.3382,3.3382,3.3382,3.3381,0,3.3285,3.3289,3.3305,3.3318,3.3332,3.3319,3.3329,3.334,3.3358,3.3366,3.3379,3.3399,3.3414,3.3415,3.3429,3.344,3.3435,3.3444,3.3442,3.3442,3.3393,3.3385,3.3448,3.3448,3.3448,3.3448,3.3448,3.3448,3.3322,3.335,3.3347,3.3378,3.3381,3.34,3.3407,3.3414,3.342,3.3443,3.3455,3.3456,3.346,3.3474,3.3487,3.3486,3.3491,3.3502,3.3499,3.3453,3.3446,3.3439,3.3432,3.3504,3.3504,3.3546,3.3547,3.3547]}]]